FW7040 Weather Reports


time (UTC)temp
F
wind
direction
speed
knots
gust
knots
rain 1hr
in
rain 24hr
in
rain mn
in
humidity
%
barometer
mb
20260510033816 79 90 0.9 3.5 0.00 0.00 0.00 78 1013.3
20260510033313 80 129 2.6 4.3 0.00 0.00 0.00 78 1013.1
20260510032810 80 94 2.6 4.3 0.00 0.00 0.00 78 1013.2
20260510032306 80 116 2.6 6.1 0.00 0.00 0.00 78 1013.0
20260510031802 80 107 0.0 7.8 0.00 0.00 0.00 77 1012.9
20260510031257 81 110 2.6 7.8 0.00 0.00 0.00 77 1012.9
20260510030751 81 121 4.3 6.1 0.00 0.00 0.00 77 1012.8
20260510030248 80 117 7.0 7.0 0.00 0.00 0.00 77 1012.7
20260510025746 81 124 2.6 6.1 0.00 0.00 0.00 77 1012.7
20260510025243 81 130 4.3 7.0 0.00 0.00 0.00 76 1012.8
20260510024740 81 134 0.0 7.8 0.00 0.00 0.00 75 1012.6
20260510024236 81 123 2.6 6.1 0.00 0.00 0.00 74 1012.5
20260510023732 82 140 4.3 6.1 0.00 0.00 0.00 73 1012.4
20260510023230 82 134 5.2 6.1 0.00 0.00 0.00 73 1012.4
20260510022726 82 107 2.6 5.2 0.00 0.00 0.00 72 1012.1
20260510022225 82 124 3.5 4.3 0.00 0.00 0.00 71 1012.4
20260510021721 82 115 1.7 5.2 0.00 0.00 0.00 71 1012.1
20260510021219 82 119 2.6 5.2 0.00 0.00 0.00 72 1012.1
20260510020713 83 115 3.5 5.2 0.00 0.00 0.00 71 1011.9
20260510020209 83 102 2.6 3.5 0.00 0.00 0.00 70 1012.0
20260510015705 84 125 2.6 6.1 0.00 0.00 0.00 69 1011.9
20260510015201 83 132 3.5 5.2 0.00 0.00 0.00 70 1011.7
20260510014701 83 113 3.5 5.2 0.00 0.00 0.00 69 1011.7
20260510014159 83 135 3.5 6.1 0.00 0.00 0.00 70 1011.8
20260510013654 83 117 2.6 7.0 0.00 0.00 0.00 69 1011.6
20260510013150 83 147 3.5 6.1 0.00 0.00 0.00 69 1011.5
20260510012649 83 99 4.3 7.0 0.00 0.00 0.00 68 1011.7
20260510012146 83 137 6.1 7.8 0.00 0.00 0.00 68 1011.4
20260510011641 84 132 3.5 6.1 0.00 0.00 0.00 67 1011.5
20260510011137 84 135 2.6 6.1 0.00 0.00 0.00 66 1011.6
20260510010633 84 132 3.5 6.1 0.00 0.00 0.00 65 1011.6
20260510010130 84 209 0.9 5.2 0.00 0.00 0.00 65 1011.2
20260510005625 85 121 3.5 6.1 0.00 0.00 0.00 62 1011.1
20260510005123 85 130 3.5 6.1 0.00 0.00 0.00 61 1011.2
20260510004621 85 61 2.6 6.1 0.00 0.00 0.00 60 1011.3
20260510004119 85 90 1.7 6.1 0.00 0.00 0.00 61 1011.5
20260510003616 85 115 7.8 7.8 0.00 0.00 0.00 60 1011.0
20260510003112 85 144 4.3 7.8 0.00 0.00 0.00 59 1011.1
20260510002606 85 119 7.8 7.8 0.00 0.00 0.00 61 1011.1
20260510002103 86 172 0.9 7.8 0.00 0.00 0.00 60 1011.1
20260510001601 86 153 3.5 7.0 0.00 0.00 0.00 59 1010.8
20260510001100 86 111 2.6 7.0 0.00 0.00 0.00 57 1011.1
20260510000559 86 125 5.2 7.8 0.00 0.00 0.00 56 1011.1
20260510000056 86 94 4.3 7.8 0.00 0.00 0.00 55 1010.7
20260509235553 87 112 3.5 7.8 0.00 0.00 0.00 53 1010.8
20260509235050 87 147 4.3 5.2 0.00 0.00 0.00 52 1010.7
20260509234546 86 102 2.6 6.1 0.00 0.00 0.00 52 1010.6
20260509234044 86 132 4.3 5.2 0.00 0.00 0.00 53 1010.7
20260509233541 87 118 5.2 7.8 0.00 0.00 0.00 52 1010.8
20260509233038 87 140 2.6 7.0 0.00 0.00 0.00 51 1010.8
20260509232535 87 94 5.2 7.0 0.00 0.00 0.00 51 1010.5
20260509232031 87 132 5.2 6.1 0.00 0.00 0.00 51 1010.3
20260509231528 87 111 5.2 6.1 0.00 0.00 0.00 51 1010.6
20260509231026 89 155 4.3 7.8 0.00 0.00 0.00 52 1010.7
20260509230522 89 75 1.7 5.2 0.00 0.00 0.00 51 1010.7
20260509230019 89 114 2.6 4.3 0.00 0.00 0.00 51 1010.4
20260509225514 87 88 6.1 10.4 0.00 0.00 0.00 53 1010.5
20260509225010 87 125 4.3 7.8 0.00 0.00 0.00 53 1010.6
20260509224507 87 153 5.2 9.6 0.00 0.00 0.00 52 1010.4
20260509224003 87 105 2.6 6.1 0.00 0.00 0.00 54 1010.6
20260509223500 87 105 2.6 6.1 0.00 0.00 0.00 57 1010.7
20260509222957 88 121 2.6 5.2 0.00 0.00 0.00 56 1010.6
20260509222453 87 97 2.6 8.7 0.00 0.00 0.00 56 1010.6
20260509221949 87 135 7.8 7.8 0.00 0.00 0.00 54 1010.6
20260509221445 87 108 3.5 7.8 0.00 0.00 0.00 55 1010.6
20260509220941 87 131 4.3 6.1 0.00 0.00 0.00 55 1010.5
20260509220437 86 115 5.2 8.7 0.00 0.00 0.00 54 1010.5
20260509215934 87 113 7.0 7.8 0.00 0.00 0.00 56 1010.8
20260509215429 87 147 5.2 7.0 0.00 0.00 0.00 57 1010.6
20260509214927 87 155 3.5 8.7 0.00 0.00 0.00 55 1010.6
20260509214424 88 160 2.6 7.8 0.00 0.00 0.00 55 1010.7
20260509213921 91 99 1.7 10.4 0.00 0.00 0.00 47 1010.6
20260509213416 91 117 8.7 8.7 0.00 0.00 0.00 48 1010.7
20260509212914 93 104 2.6 8.7 0.00 0.00 0.00 46 1010.8
20260509212412 94 127 0.0 1.7 0.00 0.00 0.00 43 1010.9
20260509211908 94 90 0.0 1.7 0.00 0.00 0.00 44 1010.7
20260509211404 93 217 1.7 4.3 0.00 0.00 0.00 47 1011.0
20260509210900 93 206 2.6 4.3 0.00 0.00 0.00 45 1011.0
20260509210357 92 173 0.9 4.3 0.00 0.00 0.00 45 1010.9
20260509205852 93 173 0.9 4.3 0.00 0.00 0.00 46 1010.9
20260509205346 93 226 5.2 5.2 0.00 0.00 0.00 47 1011.0
20260509204843 95 241 1.7 3.5 0.00 0.00 0.00 45 1011.1
20260509204334 94 225 2.6 2.6 0.00 0.00 0.00 46 1011.3
20260509203830 94 270 0.0 2.6 0.00 0.00 0.00 45 1011.3
20260509203327 93 105 1.7 1.7 0.00 0.00 0.00 47 1011.4
20260509202823 93 348 2.6 3.5 0.00 0.00 0.00 47 1011.6
20260509202320 93 264 1.7 4.3 0.00 0.00 0.00 46 1011.8
20260509201819 94 234 3.5 3.5 0.00 0.00 0.00 48 1011.6
20260509201316 95 187 0.0 1.7 0.00 0.00 0.00 46 1011.8
20260509200813 94 180 0.9 2.6 0.00 0.00 0.00 46 1012.1
20260509200308 94 243 2.6 4.3 0.00 0.00 0.00 48 1012.1
20260509195805 93 225 2.6 3.5 0.00 0.00 0.00 49 1011.9
20260509195300 92 256 2.6 7.0 0.00 0.00 0.00 50 1012.0
20260509194759 91 349 3.5 6.1 0.00 0.00 0.00 49 1011.8
20260509194256 90 222 2.6 8.7 0.00 0.00 0.00 50 1012.0
20260509193753 91 0 1.7 7.0 0.00 0.00 0.00 49 1011.9
20260509193253 91 230 6.1 6.1 0.00 0.00 0.00 53 1011.9
20260509192749 90 288 6.1 6.1 0.00 0.00 0.00 54 1011.9
20260509192244 89 243 0.9 8.7 0.00 0.00 0.00 55 1012.3
20260509191739 89 220 4.3 9.6 0.00 0.00 0.00 56 1012.3
20260509191236 89 248 1.7 4.3 0.00 0.00 0.00 57 1012.5
20260509190732 90 180 2.6 8.7 0.00 0.00 0.00 56 1012.3
20260509190229 89 252 3.5 7.0 0.00 0.00 0.00 56 1012.4
20260509185727 91 251 2.6 4.3 0.00 0.00 0.00 58 1012.8
20260509185223 90 206 0.0 2.6 0.00 0.00 0.00 58 1012.8
20260509184721 88 82 0.0 6.1 0.00 0.00 0.00 62 1012.8
20260509184218 88 354 2.6 7.8 0.00 0.00 0.00 59 1012.9
20260509183714 89 281 1.7 2.6 0.00 0.00 0.00 60 1013.0
20260509183209 87 268 4.3 7.0 0.00 0.00 0.00 60 1013.0
20260509182705 88 0 0.0 2.6 0.00 0.00 0.00 60 1013.0
20260509182203 88 195 2.6 6.1 0.00 0.00 0.00 60 1013.1
20260509181700 89 194 2.6 4.3 0.00 0.00 0.00 60 1013.0
20260509181158 87 218 4.3 7.0 0.00 0.00 0.00 62 1013.4
20260509180654 87 221 4.3 7.0 0.00 0.00 0.00 61 1013.5
20260509180150 88 244 3.5 3.5 0.00 0.00 0.00 61 1013.6
20260509175646 87 246 0.0 6.1 0.00 0.00 0.00 63 1013.5
20260509175144 86 277 2.6 6.1 0.00 0.00 0.00 63 1013.4
20260509174639 87 276 4.3 7.8 0.00 0.00 0.00 62 1013.7
20260509174134 88 16 1.7 2.6 0.00 0.00 0.00 62 1013.6
20260509173630 88 220 4.3 5.2 0.00 0.00 0.00 63 1013.8
20260509173126 87 151 0.9 3.5 0.00 0.00 0.00 65 1014.1
20260509172623 87 165 2.6 5.2 0.00 0.00 0.00 64 1013.8
20260509172119 86 247 1.7 6.1 0.00 0.00 0.00 66 1013.9
20260509171615 87 219 2.6 6.1 0.00 0.00 0.00 63 1013.6
20260509171112 87 187 2.6 4.3 0.00 0.00 0.00 65 1013.9
20260509170608 87 243 0.0 3.5 0.00 0.00 0.00 67 1013.6
20260509170104 86 219 2.6 7.0 0.00 0.00 0.00 65 1013.7
20260509165603 86 23 0.0 3.5 0.00 0.00 0.00 69 1013.8
20260509165058 84 157 0.9 2.6 0.00 0.00 0.00 70 1013.9
20260509164554 84 168 0.0 3.5 0.00 0.00 0.00 73 1014.0
20260509164050 83 117 1.7 3.5 0.00 0.00 0.00 73 1014.0
20260509163549 83 176 1.7 3.5 0.00 0.00 0.00 74 1014.1
20260509163044 82 210 2.6 2.6 0.00 0.00 0.00 76 1014.0
20260509162541 81 132 1.7 2.6 0.00 0.00 0.00 78 1014.0
20260509162036 81 203 0.0 2.6 0.00 0.00 0.00 79 1013.9
20260509161533 81 135 3.5 3.5 0.00 0.00 0.00 81 1014.2
20260509161028 79 206 4.3 7.0 0.00 0.00 0.00 83 1014.2
20260509160524 79 184 0.0 5.2 0.00 0.00 0.00 83 1014.2
20260509160020 78 231 1.7 6.1 0.00 0.00 0.00 85 1014.3
20260509155516 78 210 4.3 6.1 0.00 0.00 0.00 87 1014.3
20260509155012 77 202 2.6 7.8 0.00 0.00 0.00 88 1014.4
20260509154509 76 196 2.6 8.7 0.00 0.00 0.00 89 1014.3
20260509154007 76 212 5.2 5.2 0.00 0.00 0.00 89 1014.2
20260509153503 76 198 2.6 6.1 0.00 0.00 0.00 89 1014.3
20260509153000 75 139 1.7 8.7 0.00 0.00 0.00 89 1014.3
20260509152455 76 206 5.2 6.1 0.00 0.00 0.00 90 1014.2
20260509151953 75 162 0.0 6.1 0.00 0.00 0.00 90 1014.0
20260509151449 75 152 4.3 6.1 0.00 0.00 0.00 90 1013.8
20260509150947 75 148 1.7 6.1 0.00 0.00 0.00 91 1013.9
20260509150444 75 180 3.5 6.1 0.00 0.00 0.00 91 1014.0
20260509145943 75 155 2.6 3.5 0.00 0.00 0.00 91 1013.9
20260509145443 75 152 5.2 5.2 0.00 0.00 0.00 91 1014.0
20260509144938 75 128 3.5 6.1 0.00 0.00 0.00 91 1013.8
20260509144436 75 148 6.1 7.8 0.00 0.00 0.00 91 1013.8
20260509143932 75 120 4.3 7.0 0.00 0.00 0.00 91 1014.1
20260509143430 76 119 3.5 5.2 0.00 0.00 0.00 92 1014.0
20260509142926 76 99 4.3 6.1 0.00 0.00 0.00 92 1013.7
20260509142422 77 147 1.7 2.6 0.00 0.00 0.00 92 1013.6
20260509141918 76 116 2.6 4.3 0.00 0.00 0.00 93 1013.4
20260509141415 76 90 0.0 1.7 0.00 0.00 0.00 94 1013.5
20260509140912 75 220 1.7 4.3 0.00 0.00 0.00 94 1013.1
20260509140408 75 204 1.7 4.3 0.00 0.00 0.00 95 1013.0
20260509135907 74 154 2.6 4.3 0.00 0.00 0.00 95 1013.2
20260509135404 75 188 0.0 4.3 0.00 0.00 0.00 95 1013.0
20260509134901 74 203 3.5 4.3 0.00 0.00 0.00 95 1012.8
20260509134358 74 163 0.0 4.3 0.00 0.00 0.00 95 1013.2
20260509133855 73 199 1.7 3.5 0.00 0.00 0.00 96 1013.2
20260509133352 73 133 6.1 6.1 0.00 0.00 0.00 96 1013.2
20260509132851 73 145 4.3 7.0 0.00 0.00 0.00 96 1013.2
20260509132349 73 161 1.7 5.2 0.00 0.00 0.00 96 1013.5
20260509131845 73 186 2.6 5.2 0.00 0.00 0.00 96 1013.6
20260509131342 72 96 2.6 3.5 0.00 0.00 0.00 96 1013.5
20260509130839 72 180 0.0 2.6 0.00 0.00 0.00 96 1013.7
20260509130334 72 160 0.0 1.7 0.00 0.00 0.00 96 1013.9
20260509125831 72 185 0.9 2.6 0.00 0.00 0.00 96 1013.9
20260509125327 72 229 0.0 1.7 0.00 0.00 0.00 96 1014.0
20260509124824 72 0 0.0 2.6 0.00 0.00 0.00 96 1013.8
20260509124321 72 351 1.7 3.5 0.00 0.00 0.00 96 1014.0
20260509123819 72 8 0.0 4.3 0.00 0.00 0.00 96 1013.9
20260509123316 72 286 0.9 2.6 0.00 0.00 0.00 96 1013.5
20260509122811 72 358 2.6 2.6 0.00 0.00 0.00 96 1013.4
20260509122309 72 289 0.0 1.7 0.00 0.00 0.00 96 1013.6
20260509121805 72 240 0.0 0.9 0.00 0.00 0.00 96 1013.7
20260509121303 72 337 1.7 2.6 0.00 0.00 0.00 96 1013.6
20260509120801 72 254 0.0 0.9 0.00 0.00 0.00 96 1013.5
20260509120258 72 355 1.7 1.7 0.00 0.00 0.00 96 1013.5
20260509115756 72 311 0.0 1.7 0.00 0.00 0.00 96 1013.9
20260509115253 72 188 0.0 1.7 0.00 0.00 0.00 96 1013.8
20260509114751 72 172 0.0 1.7 0.00 0.00 0.00 96 1014.3
20260509114249 72 111 0.0 0.0 0.00 0.00 0.00 96 1013.8
20260509113748 72 154 0.9 3.5 0.00 0.00 0.00 96 1014.0
20260509113244 72 83 0.0 1.7 0.00 0.00 0.00 96 1013.9
20260509112741 72 12 0.0 1.7 0.00 0.00 0.00 96 1014.0
20260509112239 72 8 0.0 1.7 0.00 0.00 0.00 96 1014.5
20260509111736 72 23 2.6 2.6 0.00 0.00 0.00 96 1014.6
20260509111232 72 14 0.9 4.3 0.00 0.00 0.00 96 1014.7
20260509110730 72 20 2.6 2.6 0.00 0.00 0.00 96 1014.8
20260509110226 72 180 0.0 0.0 0.00 0.00 0.00 96 1014.7
20260509105725 72 180 0.0 0.0 0.00 0.00 0.00 96 1014.7
20260509105222 72 120 0.0 0.0 0.00 0.00 0.00 96 1014.7
20260509104719 72 0 0.0 1.7 0.00 0.00 0.00 96 1014.9
20260509104215 72 12 1.7 2.6 0.00 0.00 0.00 96 1014.9
20260509103714 72 254 0.0 2.6 0.00 0.00 0.00 96 1014.7
20260509103210 72 18 1.7 1.7 0.00 0.00 0.00 96 1014.9
20260509102709 72 206 0.9 2.6 0.00 0.00 0.00 96 1014.7
20260509102205 72 15 0.0 3.5 0.00 0.00 0.00 96 1014.5
20260509101702 72 4 1.7 4.3 0.00 0.00 0.00 95 1014.5
20260509101158 72 6 2.6 4.3 0.00 0.00 0.00 95 1014.4
20260509100656 72 27 3.5 3.5 0.00 0.00 0.00 95 1014.2
20260509100152 73 0 4.3 4.3 0.00 0.00 0.00 95 1014.1
20260509095650 72 10 2.6 2.6 0.00 0.00 0.00 95 1013.9
20260509095147 72 8 0.0 1.7 0.00 0.00 0.00 95 1013.6
20260509094643 73 101 0.0 2.6 0.00 0.00 0.00 95 1013.3
20260509094140 72 90 0.0 2.6 0.00 0.00 0.00 95 1013.3
20260509093639 72 126 0.9 2.6 0.00 0.00 0.00 95 1013.2
20260509093135 73 81 0.0 3.5 0.00 0.00 0.00 95 1013.0
20260509092633 72 157 0.9 2.6 0.02 0.00 0.00 95 1012.9
20260509092132 72 120 0.0 1.7 0.02 0.00 0.00 95 1013.3
20260509091629 72 75 0.9 1.7 0.00 0.00 0.00 95 1013.2
20260509091125 73 106 1.7 1.7 0.00 0.00 0.00 95 1013.1
20260509090623 73 145 0.0 0.9 0.00 0.00 0.00 95 1013.3
20260509090120 73 105 0.0 1.7 0.00 0.00 0.00 95 1013.0
20260509085618 72 195 0.0 0.0 0.00 0.00 0.00 94 1013.2
20260509085113 72 165 0.0 0.0 0.00 0.00 0.00 94 1013.0
20260509084611 72 165 0.0 0.9 0.00 0.00 0.00 94 1013.2
20260509084108 72 103 0.0 1.7 0.00 0.00 0.00 94 1013.3
20260509083605 73 175 0.0 1.7 0.00 0.00 0.00 94 1013.2
20260509083101 73 90 0.0 1.7 0.00 0.00 0.00 94 1013.3
20260509082559 73 352 0.0 2.6 0.00 0.00 0.00 94 1013.4
20260509082056 73 37 0.0 2.6 0.00 0.00 0.00 94 1013.6
20260509081553 73 97 0.9 2.6 0.00 0.00 0.00 93 1013.6
20260509081049 73 83 0.0 3.5 0.00 0.00 0.00 93 1013.6
20260509080548 73 112 1.7 4.3 0.00 0.00 0.00 93 1013.4
20260509080046 73 12 1.7 3.5 0.00 0.00 0.00 93 1013.6
20260509075542 73 8 0.0 2.6 0.00 0.00 0.00 93 1013.4
20260509075041 73 51 0.0 3.5 0.00 0.00 0.00 92 1013.4
20260509074537 73 10 1.7 1.7 0.00 0.00 0.00 92 1013.5
20260509074034 73 32 1.7 2.6 0.00 0.00 0.00 92 1013.5
20260509073530 73 94 2.6 2.6 0.00 0.00 0.00 92 1013.6
20260509073027 73 33 2.6 3.5 0.00 0.00 0.00 92 1013.4
20260509072523 73 90 1.7 3.5 0.00 0.00 0.00 91 1013.3
20260509072020 73 63 3.5 3.5 0.00 0.00 0.00 91 1013.7
20260509071517 74 99 0.0 1.7 0.00 0.00 0.00 91 1013.7
20260509071015 74 63 1.7 2.6 0.00 0.00 0.00 91 1013.7
20260509070512 74 84 0.9 2.6 0.00 0.00 0.00 91 1013.4
20260509070008 74 80 2.6 3.5 0.00 0.00 0.00 91 1013.8
20260509065503 74 98 0.9 2.6 0.00 0.00 0.00 91 1013.9
20260509065000 73 66 0.0 0.9 0.00 0.00 0.00 91 1013.8
20260509064458 73 74 0.0 0.9 0.00 0.00 0.00 91 1013.5
20260509063955 74 48 0.0 1.7 0.00 0.00 0.00 91 1013.4
20260509063451 74 90 0.0 1.7 0.00 0.00 0.00 91 1013.6
20260509062948 74 111 0.0 0.9 0.00 0.00 0.00 91 1013.3
20260509062445 74 81 0.0 2.6 0.00 0.00 0.00 91 1013.4
20260509061943 74 168 0.9 3.5 0.00 0.00 0.00 90 1013.5
20260509061440 74 180 1.7 5.2 0.00 0.00 0.00 90 1013.5
20260509060937 74 168 0.9 5.2 0.00 0.00 0.00 91 1013.4
20260509060435 74 151 4.3 5.2 0.00 0.00 0.00 90 1013.3
20260509055930 74 158 3.5 6.1 0.00 0.00 0.00 90 1013.2
20260509055425 74 145 4.3 6.1 0.00 0.00 0.00 91 1013.1
20260509054922 74 158 6.1 9.6 0.00 0.00 0.00 91 1013.2
20260509054418 74 200 0.9 4.3 0.00 0.00 0.00 91 1013.1
20260509053917 73 149 2.6 4.3 0.00 0.00 0.00 91 1013.2
20260509053415 73 155 3.5 7.0 0.00 0.00 0.00 91 1013.3
20260509052912 73 160 3.5 8.7 0.00 0.00 0.00 91 1013.1
20260509052409 73 200 0.0 5.2 0.00 0.00 0.00 90 1013.0
20260509051907 73 132 1.7 5.2 0.00 0.00 0.00 91 1012.7
20260509051405 73 114 3.5 5.2 0.00 0.00 0.00 90 1012.6
20260509050901 73 131 1.7 5.2 0.00 0.00 0.00 90 1012.4
20260509050358 74 126 5.2 6.1 0.00 0.00 0.00 90 1012.5
20260509045855 73 142 3.5 7.8 0.00 0.00 0.00 90 1012.6
20260509045352 73 90 3.5 7.0 0.00 0.00 0.00 90 1012.3
20260509044849 74 110 5.2 7.8 0.00 0.00 0.00 89 1012.3
20260509044347 74 107 4.3 5.2 0.00 0.00 0.00 89 1012.3
20260509043843 74 110 4.3 7.8 0.00 0.00 0.00 89 1012.6
20260509043339 74 139 1.7 6.1 0.00 0.00 0.00 89 1012.3
20260509042835 74 116 4.3 4.3 0.00 0.00 0.00 88 1012.8
20260509042332 74 84 0.9 7.8 0.00 0.00 0.00 88 1012.7
20260509041828 74 90 1.7 5.2 0.00 0.00 0.00 88 1012.8
20260509041325 74 139 1.7 3.5 0.00 0.00 0.00 87 1012.8
20260509040824 74 94 0.0 3.5 0.00 0.00 0.00 88 1012.8
20260509040321 74 106 1.7 3.5 0.00 0.00 0.00 87 1012.9
20260509035818 75 124 5.2 7.0 0.00 0.00 0.00 87 1012.8
20260509035315 74 213 3.5 4.3 0.00 0.00 0.00 86 1012.8
20260509034811 75 101 0.0 4.3 0.00 0.00 0.00 86 1012.8
20260509034309 75 156 1.7 4.3 0.00 0.00 0.00 86 1013.1